This is the latest recevied weather packets stored in our database for station/object KC7UNY-13. If no packets are shown the sender has not sent any weather packets the latest 10 day(s).
| Time | Temp. | Humidity | Pressure | Rain* | Wind** | Luminosity | Snow |
|---|---|---|---|---|---|---|---|
| 1777757140 | 33.89° C | 18% | 1011.5 hPa | 0 mm | - | 663 W/m² | - |
| 1777756837 | 33.89° C | 19% | 1011.5 hPa | 0 mm | - | 686 W/m² | - |
| 1777756532 | 35° C | 18% | 1011.5 hPa | 0 mm | - | 674 W/m² | - |
| 1777756230 | 35° C | 19% | 1011.6 hPa | 0 mm | - | 749 W/m² | - |
| 1777755927 | 35° C | 18% | 1011.7 hPa | 0 mm | - | 748 W/m² | - |
| 1777755624 | 34.44° C | 19% | 1011.8 hPa | 0 mm | - | 756 W/m² | - |
| 1777755320 | 33.89° C | 18% | 1011.8 hPa | 0 mm | - | 780 W/m² | - |
| 1777755017 | 33.89° C | 17% | 1012 hPa | 0 mm | - | 765 W/m² | - |
| 1777754714 | 33.89° C | 18% | 1012.1 hPa | 0 mm | - | 775 W/m² | - |
| 1777754412 | 33.89° C | 20% | 1012.2 hPa | 0 mm | - | 766 W/m² | - |
| 1777754109 | 33.33° C | 20% | 1012.3 hPa | 0 mm | - | 769 W/m² | - |
| 1777753806 | 33.33° C | 20% | 1012.2 hPa | 0 mm | - | 770 W/m² | - |
| 1777753502 | 32.78° C | 21% | 1012.5 hPa | 0 mm | - | 776 W/m² | - |
| 1777753200 | 32.78° C | 21% | 1012.4 hPa | 0 mm | - | 782 W/m² | - |
| 1777752896 | 33.33° C | 20% | 1012.5 hPa | 0 mm | - | 782 W/m² | - |
| 1777752593 | 33.33° C | 23% | 1012.4 hPa | 0 mm | - | 786 W/m² | - |
| 1777752288 | 32.78° C | 22% | 1012.7 hPa | 0 mm | - | 790 W/m² | - |
| 1777751986 | 32.78° C | 22% | 1012.7 hPa | 0 mm | - | 794 W/m² | - |
| 1777751684 | 33.33° C | 22% | 1012.8 hPa | 0 mm | - | 798 W/m² | - |
| 1777751379 | 33.33° C | 23% | 1012.8 hPa | 0 mm | - | 799 W/m² | - |
| 1777751077 | 32.78° C | 23% | 1012.7 hPa | 0 mm | - | 806 W/m² | - |
| 1777750772 | 33.33° C | 22% | 1012.9 hPa | 0 mm | - | 807 W/m² | - |
| 1777750470 | 32.78° C | 23% | 1012.8 hPa | 0 mm | - | 807 W/m² | - |
| 1777750165 | 32.22° C | 23% | 1013.2 hPa | 0 mm | - | 804 W/m² | - |
| 1777749863 | 32.22° C | 23% | 1013.3 hPa | 0 mm | - | 801 W/m² | - |
* Rain latest hour (hover to see other rain measurements)
** Current wind speed in m/s (hover to see current wind gust speed)